Gage, OK

10:58 AM CST on February 10, 2016 (GMT -0600)
Gage

Weather History for KGAG - February, 2014

Change the Weather History Date:

Sunday, February 2, 2014

  Actual Average Record
Temperature  
Mean Temperature 26 °F -  
Max Temperature 34 °F 46 °F 74 °F (1962)
Min Temperature 15 °F 20 °F -7 °F (1951)
Degree Days  
Heating Degree Days 40    
Moisture  
Dew Point 8 °F    
Average Humidity 56    
Maximum Humidity 80    
Minimum Humidity 26    
Precipitation  
Precipitation 0.00 in - - ()
Sea Level Pressure  
Sea Level Pressure 30.29 in    
Wind  
Wind Speed 11 mph (NE)    
Max Wind Speed 15 mph    
Max Gust Speed 22 mph    
Visibility 10 miles    
Events      
Averages and records for this station are not official NWS values.
T = Trace of Precipitation, MM = Missing Value Source: NWS Daily Summary

Daily Weather History Graph

Daily Weather History Graph

Search for Another Location

Airport or City:

Trip Planner

Search our weather history database for the weather conditions in past years. The results will help you decide how hot, cold, wet, or windy it might be!

Date:

Astronomy

Feb. 02, 2014 Rise Set
Actual Time 7:39 AM CST 6:06 PM CST
Civil Twilight 7:12 AM CST 6:33 PM CST
Nautical Twilight 6:41 AM CST 7:04 PM CST
Astronomical Twilight 6:11 AM CST 7:34 PM CST
Moon 9:14 AM CST (2/2) 9:44 PM CST (2/2)
Length of Visible Light 11h 21m
Length of Day
10h 27m
Waxing Crescent, 11% of the Moon is Illuminated
Feb 2
Waxing Crescent
Feb 6
First Quarter
Feb 14
Full
Feb 22
Last Quarter
Mar 1
New

Hourly Weather History & Observations

Time (CST) Temp. Windchill Dew Point Humidity Pressure Visibility Wind Dir Wind Speed Gust Speed Precip Events Conditions
12:24 AM 21.2 °F 9.5 °F 15.8 °F 80% 30.21 in 10.0 mi NNE 11.5 mph - N/A   Overcast
12:53 AM 21.9 °F 9.8 °F 15.1 °F 75% 30.27 in 10.0 mi NNE 12.7 mph - N/A   Overcast
1:00 AM 21.2 °F 9.5 °F 15.8 °F 80% 30.22 in 10.0 mi North 11.5 mph - N/A   Overcast
1:53 AM 21.0 °F 8.6 °F 14.0 °F 74% 30.29 in 10.0 mi North 12.7 mph - N/A   Overcast
2:26 AM 21.2 °F 8.3 °F 12.2 °F 68% 30.22 in 10.0 mi North 13.8 mph - N/A   Overcast
2:53 AM 21.0 °F 9.3 °F 12.9 °F 71% 30.30 in 10.0 mi North 11.5 mph - N/A   Overcast
3:53 AM 19.9 °F 7.3 °F 12.0 °F 71% 30.30 in 10.0 mi North 12.7 mph 20.7 mph N/A   Overcast
4:53 AM 19.9 °F 6.7 °F 12.0 °F 71% 30.26 in 10.0 mi NNE 13.8 mph 21.9 mph N/A   Mostly Cloudy
5:53 AM 19.0 °F 5.0 °F 12.0 °F 74% 30.30 in 10.0 mi North 15.0 mph - N/A   Clear
6:53 AM 19.0 °F 6.8 °F 12.0 °F 74% 30.30 in 10.0 mi North 11.5 mph - N/A   Clear
7:53 AM 18.0 °F 4.2 °F 10.0 °F 71% 30.32 in 10.0 mi North 13.8 mph - N/A   Clear
8:53 AM 18.0 °F 6.1 °F 10.0 °F 71% 30.36 in 10.0 mi North 10.4 mph - N/A   Clear
9:53 AM 21.0 °F 9.3 °F 10.0 °F 63% 30.38 in 10.0 mi NNE 11.5 mph - N/A   Clear
10:53 AM 25.0 °F 14.8 °F 7.0 °F 46% 30.37 in 10.0 mi NNE 10.4 mph - N/A   Clear
11:53 AM 28.9 °F 19.8 °F 6.1 °F 38% 30.36 in 10.0 mi NE 10.4 mph - N/A   Clear
12:53 PM 28.0 °F 21.7 °F 6.1 °F 39% 30.32 in 10.0 mi NE 5.8 mph - N/A   Clear
1:53 PM 30.9 °F 26.2 °F 3.9 °F 32% 30.29 in 10.0 mi NNE 4.6 mph - N/A   Clear
2:53 PM 34.0 °F 31.0 °F 3.0 °F 27% 30.27 in 10.0 mi Variable 3.5 mph - N/A   Clear
3:53 PM 34.0 °F 28.8 °F 1.9 °F 26% 30.26 in 10.0 mi Variable 5.8 mph - N/A   Clear
5:53 PM 30.9 °F 27.5 °F 1.0 °F 28% 30.27 in 10.0 mi East 3.5 mph - N/A   Clear
6:53 PM 25.0 °F 19.3 °F 1.0 °F 36% 30.29 in 10.0 mi East 4.6 mph - N/A   Clear
7:53 PM 19.0 °F 11.1 °F 1.0 °F 46% 30.30 in 10.0 mi SE 5.8 mph - N/A   Clear
8:53 PM 19.0 °F 10.0 °F 1.9 °F 47% 30.29 in 10.0 mi ESE 6.9 mph - N/A   Clear
9:53 PM 19.9 °F 11.1 °F 3.0 °F 48% 30.27 in 10.0 mi SE 6.9 mph - N/A   Clear
10:53 PM 17.1 °F 7.6 °F 3.0 °F 54% 30.31 in 10.0 mi SSE 6.9 mph - N/A   Clear
11:53 PM 15.1 °F 7.7 °F 3.0 °F 59% 30.32 in 10.0 mi SW 4.6 mph - N/A   Clear